Location: Riverside
(39.1734°N, 77.8561°W)
Time: 05:26:27
(UTC+00:00)

BEESAT 3 - Pass Details

Date: 03 June 2019
Orbit: 484 x 526 km, 64.9° (Epoch: 18 June)

Event Time Altitude Azimuth Distance (km) Brightness Sun altitude
Rises 02:48:23 0° 338° (NNW) 2,663 ? -20.3°
Reaches altitude 10° 02:50:47 10° 350° (N) 1,773 ? -20.5°
Maximum altitude 02:54:18 29° 51° (NE) 984 ? -20.9°
Enters shadow 02:54:53 28° 68° (ENE) 1,013 ? -21.0°
